| time (UTC) | temp C | wind direction | speed KPH | gust KPH | rain 1hr cm | rain 24hr cm | rain mn cm | humidity % | barometer mb |
| 20260507090015 | 14 | 0.0 | 3.2 | 0.03 | 0.30 | 0.03 | 92 | 1011.9 | |
| 20260507085015 | 15 | 0.0 | 3.2 | 0.03 | 0.30 | 0.03 | 91 | 1011.8 | |
| 20260507084015 | 15 | 68 | 1.6 | 3.2 | 0.00 | 0.28 | 0.00 | 90 | 1011.5 |
| 20260507083035 | 15 | 0.0 | 4.8 | 0.00 | 0.28 | 0.00 | 91 | 1011.7 | |
| 20260507082015 | 15 | 68 | 3.2 | 6.4 | 0.00 | 0.28 | 0.00 | 91 | 1011.5 |
| 20260507081015 | 16 | 68 | 1.6 | 4.8 | 0.00 | 0.28 | 0.00 | 92 | 1011.6 |
| 20260507080015 | 17 | 45 | 1.6 | 4.8 | 0.00 | 0.28 | 0.00 | 93 | 1011.3 |
| 20260507075016 | 17 | 68 | 3.2 | 8.0 | 0.00 | 0.28 | 0.00 | 94 | 1010.5 |
| 20260507074015 | 18 | 45 | 1.6 | 4.8 | 0.00 | 0.28 | 0.00 | 95 | 1010.5 |
| 20260507073015 | 18 | 0.0 | 1.6 | 0.00 | 0.28 | 0.00 | 95 | 1010.5 | |
| 20260507072015 | 18 | 0.0 | 0.0 | 0.00 | 0.28 | 0.00 | 95 | 1010.4 | |
| 20260507071015 | 18 | 0.0 | 0.0 | 0.00 | 0.28 | 0.00 | 94 | 1010.6 | |
| 20260507070015 | 18 | 0.0 | 0.0 | 0.00 | 0.28 | 0.00 | 94 | 1010.7 | |
| 20260507065015 | 18 | 0.0 | 0.0 | 0.00 | 0.28 | 0.00 | 93 | 1010.3 | |
| 20260507064015 | 19 | 0.0 | 0.0 | 0.00 | 0.28 | 0.00 | 92 | 1010.0 | |
| 20260507063015 | 19 | 0.0 | 0.0 | 0.00 | 0.28 | 0.00 | 90 | 1009.8 | |
| 20260507062015 | 20 | 0.0 | 1.6 | 0.00 | 0.28 | 0.00 | 90 | 1009.7 | |
| 20260507061015 | 20 | 0.0 | 1.6 | 0.00 | 0.28 | 0.00 | 89 | 1009.4 | |
| 20260507060015 | 20 | 0.0 | 1.6 | 0.00 | 0.28 | 0.00 | 89 | 1009.2 | |
| 20260507055015 | 20 | 0.0 | 3.2 | 0.00 | 0.28 | 0.00 | 88 | 1009.6 | |
| 20260507054035 | 20 | 0.0 | 3.2 | 0.00 | 0.28 | 0.00 | 87 | 1009.4 | |
| 20260507053015 | 20 | 0.0 | 3.2 | 0.00 | 0.28 | 0.00 | 87 | 1009.7 | |
| 20260507052015 | 20 | 0.0 | 1.6 | 0.00 | 0.28 | 0.00 | 87 | 1009.8 | |
| 20260507051015 | 20 | 0.0 | 3.2 | 0.00 | 0.28 | 0.00 | 87 | 1010.1 | |
| 20260507050015 | 20 | 0.0 | 3.2 | 0.00 | 0.28 | 0.00 | 87 | 1010.5 | |
| 20260507045015 | 20 | 0.0 | 4.8 | 0.00 | 0.28 | 0.00 | 87 | 1010.6 | |
| 20260507044015 | 20 | 0.0 | 3.2 | 0.00 | 0.28 | 0.00 | 87 | 1010.8 | |
| 20260507043015 | 20 | 248 | 1.6 | 6.4 | 0.00 | 0.28 | 0.00 | 87 | 1010.9 |
| 20260507042015 | 20 | 0.0 | 3.2 | 0.00 | 0.28 | 0.00 | 87 | 1011.0 | |
| 20260507041015 | 20 | 0.0 | 3.2 | 0.00 | 0.28 | 0.00 | 87 | 1010.5 | |
| 20260507040015 | 20 | 270 | 1.6 | 4.8 | 0.00 | 0.28 | 0.00 | 87 | 1010.6 |
| 20260507035017 | 20 | 270 | 1.6 | 8.0 | 0.00 | 0.28 | 0.28 | 87 | 1010.8 |
| 20260507034016 | 20 | 270 | 1.6 | 8.0 | 0.00 | 0.28 | 0.28 | 87 | 1011.2 |
| 20260507033015 | 20 | 270 | 1.6 | 3.2 | 0.00 | 0.28 | 0.28 | 86 | 1010.9 |
| 20260507032017 | 20 | 270 | 1.6 | 3.2 | 0.00 | 0.28 | 0.28 | 86 | 1010.7 |
| 20260507031017 | 20 | 0 | 1.6 | 3.2 | 0.00 | 0.28 | 0.28 | 86 | 1010.4 |
| 20260507030017 | 20 | 270 | 1.6 | 6.4 | 0.00 | 0.28 | 0.28 | 86 | 1010.3 |
| 20260507025017 | 20 | 270 | 1.6 | 4.8 | 0.00 | 0.28 | 0.28 | 86 | 1010.1 |
| 20260507024017 | 20 | 270 | 1.6 | 6.4 | 0.00 | 0.28 | 0.28 | 86 | 1010.2 |
| 20260507023017 | 20 | 0.0 | 3.2 | 0.00 | 0.28 | 0.28 | 86 | 1010.4 | |
| 20260507022017 | 20 | 270 | 1.6 | 6.4 | 0.00 | 0.28 | 0.28 | 86 | 1010.4 |
| 20260507021017 | 20 | 270 | 1.6 | 11.3 | 0.00 | 0.28 | 0.28 | 86 | 1010.8 |
| 20260507020037 | 20 | 270 | 1.6 | 6.4 | 0.00 | 0.28 | 0.28 | 86 | 1010.7 |
| 20260507015017 | 20 | 270 | 1.6 | 4.8 | 0.00 | 0.28 | 0.28 | 86 | 1010.7 |
| 20260507014037 | 20 | 0.0 | 3.2 | 0.00 | 0.28 | 0.28 | 86 | 1010.7 | |
| 20260507013037 | 20 | 0.0 | 6.4 | 0.00 | 0.28 | 0.28 | 85 | 1010.7 | |
| 20260507012057 | 20 | 270 | 1.6 | 8.0 | 0.00 | 0.28 | 0.28 | 85 | 1010.7 |
| 20260507011017 | 20 | 225 | 1.6 | 3.2 | 0.00 | 0.28 | 0.28 | 85 | 1010.7 |
| 20260507010017 | 20 | 0.0 | 1.6 | 0.00 | 0.28 | 0.28 | 85 | 1010.4 | |
| 20260507005017 | 20 | 270 | 1.6 | 8.0 | 0.00 | 0.28 | 0.28 | 84 | 1010.2 |
| 20260507004016 | 20 | 248 | 1.6 | 6.4 | 0.00 | 0.28 | 0.28 | 84 | 1010.5 |
| 20260507003016 | 20 | 270 | 1.6 | 8.0 | 0.00 | 0.28 | 0.28 | 83 | 1010.9 |
| 20260507002017 | 21 | 0.0 | 4.8 | 0.00 | 0.28 | 0.28 | 83 | 1010.7 | |
| 20260507001016 | 21 | 293 | 1.6 | 8.0 | 0.00 | 0.28 | 0.28 | 82 | 1010.8 |
| 20260507000116 | 21 | 270 | 1.6 | 8.0 | 0.00 | 0.28 | 0.28 | 82 | 1010.6 |
| 20260506235017 | 21 | 293 | 1.6 | 8.0 | 0.00 | 0.28 | 0.28 | 81 | 1010.5 |
| 20260506234017 | 21 | 270 | 1.6 | 4.8 | 0.00 | 0.28 | 0.28 | 80 | 1010.4 |
| 20260506233016 | 21 | 270 | 1.6 | 6.4 | 0.00 | 0.28 | 0.28 | 80 | 1010.2 |
| 20260506232017 | 22 | 270 | 3.2 | 6.4 | 0.00 | 0.28 | 0.28 | 79 | 1010.3 |
| 20260506231017 | 22 | 293 | 3.2 | 17.7 | 0.00 | 0.28 | 0.28 | 78 | 1010.3 |
| 20260506230016 | 22 | 293 | 1.6 | 8.0 | 0.00 | 0.28 | 0.28 | 78 | 1010.2 |
| 20260506225016 | 22 | 293 | 1.6 | 4.8 | 0.00 | 0.28 | 0.28 | 79 | 1010.3 |
| 20260506224016 | 22 | 270 | 1.6 | 4.8 | 0.00 | 0.28 | 0.28 | 79 | 1010.5 |
| 20260506223017 | 21 | 0 | 1.6 | 6.4 | 0.00 | 0.28 | 0.28 | 79 | 1010.3 |
| 20260506222016 | 21 | 270 | 1.6 | 12.9 | 0.00 | 0.28 | 0.28 | 78 | 1010.4 |
| 20260506221016 | 22 | 270 | 3.2 | 11.3 | 0.00 | 0.28 | 0.28 | 78 | 1010.5 |
| 20260506220037 | 22 | 293 | 3.2 | 11.3 | 0.00 | 0.28 | 0.28 | 78 | 1010.1 |
| 20260506215016 | 22 | 293 | 1.6 | 6.4 | 0.00 | 0.28 | 0.28 | 78 | 1010.2 |
| 20260506214016 | 22 | 293 | 4.8 | 11.3 | 0.00 | 0.28 | 0.28 | 78 | 1010.5 |
| 20260506213016 | 22 | 270 | 3.2 | 11.3 | 0.00 | 0.28 | 0.28 | 78 | 1010.3 |
| 20260506212016 | 22 | 270 | 3.2 | 12.9 | 0.00 | 0.28 | 0.28 | 78 | 1010.6 |
| 20260506211017 | 22 | 293 | 3.2 | 12.9 | 0.00 | 0.28 | 0.28 | 78 | 1010.4 |
| 20260506210016 | 22 | 293 | 3.2 | 20.9 | 0.00 | 0.28 | 0.28 | 78 | 1010.3 |
| 20260506205016 | 22 | 68 | 3.2 | 8.0 | 0.00 | 0.28 | 0.28 | 80 | 1010.5 |
| 20260506204016 | 21 | 0 | 1.6 | 4.8 | 0.00 | 0.28 | 0.28 | 81 | 1010.6 |
| 20260506203016 | 21 | 270 | 1.6 | 4.8 | 0.00 | 0.28 | 0.28 | 83 | 1010.3 |
| 20260506202037 | 20 | 23 | 1.6 | 4.8 | 0.00 | 0.28 | 0.28 | 83 | 1010.2 |
| 20260506201036 | 20 | 0.0 | 4.8 | 0.00 | 0.28 | 0.28 | 84 | 1010.8 | |
| 20260506200016 | 20 | 270 | 1.6 | 8.0 | 0.00 | 0.28 | 0.28 | 84 | 1010.7 |
| 20260506195022 | 20 | 0.0 | 3.2 | 0.00 | 0.28 | 0.28 | 84 | 1010.3 | |
| 20260506194016 | 20 | 270 | 1.6 | 4.8 | 0.00 | 0.28 | 0.28 | 84 | 1010.2 |
| 20260506193016 | 20 | 270 | 1.6 | 8.0 | 0.00 | 0.28 | 0.28 | 85 | 1010.2 |
| 20260506192016 | 20 | 270 | 1.6 | 6.4 | 0.00 | 0.28 | 0.28 | 86 | 1010.3 |
| 20260506191016 | 19 | 270 | 1.6 | 8.0 | 0.00 | 0.28 | 0.28 | 86 | 1010.9 |
| 20260506190016 | 19 | 45 | 1.6 | 6.4 | 0.00 | 0.28 | 0.28 | 87 | 1011.1 |
| 20260506185016 | 18 | 293 | 1.6 | 8.0 | 0.00 | 0.28 | 0.28 | 88 | 1011.3 |
| 20260506184016 | 18 | 293 | 1.6 | 9.7 | 0.00 | 0.28 | 0.28 | 88 | 1011.1 |
| 20260506183016 | 18 | 293 | 1.6 | 8.0 | 0.00 | 0.28 | 0.28 | 87 | 1011.3 |
| 20260506182016 | 18 | 293 | 3.2 | 11.3 | 0.00 | 0.28 | 0.28 | 86 | 1011.1 |
| 20260506181016 | 19 | 270 | 4.8 | 14.5 | 0.00 | 0.28 | 0.28 | 85 | 1011.7 |
| 20260506180016 | 19 | 270 | 1.6 | 11.3 | 0.00 | 0.28 | 0.28 | 86 | 1012.0 |
| 20260506175016 | 18 | 293 | 4.8 | 17.7 | 0.00 | 0.28 | 0.28 | 87 | 1011.8 |
| 20260506174016 | 18 | 293 | 3.2 | 9.7 | 0.00 | 0.28 | 0.28 | 88 | 1012.0 |
| 20260506173016 | 18 | 315 | 3.2 | 14.5 | 0.00 | 0.28 | 0.28 | 90 | 1011.9 |
| 20260506172016 | 18 | 293 | 1.6 | 12.9 | 0.00 | 0.28 | 0.28 | 90 | 1011.9 |
| 20260506171036 | 18 | 293 | 3.2 | 11.3 | 0.03 | 0.28 | 0.28 | 89 | 1011.7 |
| 20260506170016 | 18 | 270 | 3.2 | 8.0 | 0.03 | 0.28 | 0.28 | 90 | 1011.9 |
| 20260506165016 | 18 | 23 | 1.6 | 4.8 | 0.05 | 0.28 | 0.28 | 90 | 1012.1 |
| 20260506164016 | 18 | 270 | 1.6 | 11.3 | 0.05 | 0.28 | 0.28 | 91 | 1012.4 |
| 20260506163016 | 17 | 270 | 1.6 | 11.3 | 0.05 | 0.28 | 0.28 | 91 | 1012.4 |
| 20260506162016 | 17 | 68 | 1.6 | 8.0 | 0.05 | 0.28 | 0.28 | 91 | 1012.2 |
| 20260506161016 | 17 | 90 | 1.6 | 11.3 | 0.03 | 0.25 | 0.25 | 91 | 1012.1 |
| 20260506160016 | 17 | 113 | 1.6 | 6.4 | 0.03 | 0.25 | 0.25 | 91 | 1012.2 |
| 20260506155016 | 17 | 270 | 1.6 | 9.7 | 0.00 | 0.23 | 0.23 | 91 | 1012.1 |
| 20260506154016 | 17 | 68 | 3.2 | 8.0 | 0.00 | 0.23 | 0.23 | 92 | 1012.2 |
| 20260506153016 | 17 | 293 | 1.6 | 9.7 | 0.03 | 0.23 | 0.23 | 92 | 1012.4 |
| 20260506152036 | 17 | 90 | 1.6 | 6.4 | 0.08 | 0.23 | 0.23 | 93 | 1012.5 |
| 20260506151016 | 16 | 113 | 1.6 | 4.8 | 0.15 | 0.23 | 0.23 | 92 | 1012.7 |
| 20260506150016 | 17 | 0.0 | 3.2 | 0.20 | 0.23 | 0.23 | 93 | 1012.8 | |
| 20260506145016 | 16 | 0.0 | 6.4 | 0.23 | 0.23 | 0.23 | 92 | 1013.0 | |
| 20260506144016 | 16 | 0 | 1.6 | 4.8 | 0.23 | 0.23 | 0.23 | 91 | 1012.9 |
| 20260506143016 | 16 | 90 | 1.6 | 4.8 | 0.20 | 0.20 | 0.20 | 90 | 1013.1 |
| 20260506142016 | 17 | 338 | 1.6 | 4.8 | 0.15 | 0.15 | 0.15 | 88 | 1013.2 |
| 20260506141016 | 17 | 293 | 1.6 | 6.4 | 0.08 | 0.08 | 0.08 | 86 | 1013.0 |
| 20260506140016 | 17 | 0.0 | 3.2 | 0.03 | 0.03 | 0.03 | 84 | 1012.8 | |
| 20260506135016 | 18 | 90 | 3.2 | 12.9 | 0.00 | 0.00 | 0.00 | 81 | 1012.9 |
| 20260506134016 | 18 | 113 | 3.2 | 12.9 | 0.00 | 0.00 | 0.00 | 78 | 1012.9 |
| 20260506133016 | 18 | 338 | 1.6 | 9.7 | 0.00 | 0.00 | 0.00 | 78 | 1012.9 |
| 20260506132016 | 18 | 270 | 1.6 | 11.3 | 0.00 | 0.00 | 0.00 | 78 | 1012.8 |
| 20260506131016 | 18 | 270 | 1.6 | 12.9 | 0.00 | 0.00 | 0.00 | 78 | 1012.8 |
| 20260506130036 | 18 | 113 | 3.2 | 11.3 | 0.00 | 0.00 | 0.00 | 79 | 1012.7 |
| 20260506125036 | 18 | 270 | 1.6 | 11.3 | 0.00 | 0.00 | 0.00 | 80 | 1012.7 |
| 20260506124016 | 18 | 45 | 3.2 | 17.7 | 0.00 | 0.00 | 0.00 | 80 | 1012.6 |
| 20260506123016 | 18 | 90 | 1.6 | 14.5 | 0.00 | 0.00 | 0.00 | 79 | 1012.7 |
| 20260506122036 | 18 | 0.0 | 3.2 | 0.00 | 0.00 | 0.00 | 78 | 1012.6 | |
| 20260506121016 | 18 | 315 | 3.2 | 12.9 | 0.00 | 0.00 | 0.00 | 77 | 1012.6 |
| 20260506120016 | 18 | 0 | 3.2 | 14.5 | 0.00 | 0.00 | 0.00 | 77 | 1012.5 |
| 20260506115016 | 18 | 68 | 1.6 | 6.4 | 0.00 | 0.00 | 0.00 | 77 | 1012.5 |
| 20260506114016 | 18 | 293 | 3.2 | 12.9 | 0.00 | 0.00 | 0.00 | 77 | 1012.5 |
| 20260506113036 | 18 | 68 | 1.6 | 6.4 | 0.00 | 0.00 | 0.00 | 77 | 1012.4 |
| 20260506112016 | 18 | 0.0 | 3.2 | 0.00 | 0.00 | 0.00 | 77 | 1012.5 | |
| 20260506110016 | 18 | 90 | 3.2 | 8.0 | 0.00 | 0.00 | 0.00 | 77 | 1012.3 |
| 20260506105016 | 18 | 293 | 1.6 | 8.0 | 0.00 | 0.00 | 0.00 | 77 | 1012.4 |
| 20260506104016 | 17 | 68 | 3.2 | 11.3 | 0.00 | 0.00 | 0.00 | 77 | 1012.4 |
| 20260506103015 | 18 | 68 | 1.6 | 11.3 | 0.00 | 0.00 | 0.00 | 77 | 1012.6 |
| 20260506102015 | 18 | 68 | 1.6 | 4.8 | 0.00 | 0.00 | 0.00 | 77 | 1012.7 |
| 20260506101016 | 18 | 90 | 1.6 | 6.4 | 0.00 | 0.00 | 0.00 | 77 | 1012.5 |
| 20260506100016 | 18 | 293 | 1.6 | 8.0 | 0.00 | 0.00 | 0.00 | 77 | 1012.6 |
| 20260506095016 | 18 | 90 | 1.6 | 4.8 | 0.00 | 0.00 | 0.00 | 78 | 1012.5 |
| 20260506094016 | 18 | 293 | 1.6 | 9.7 | 0.00 | 0.00 | 0.00 | 78 | 1012.5 |
| 20260506093016 | 18 | 45 | 3.2 | 11.3 | 0.00 | 0.00 | 0.00 | 78 | 1012.4 |
| 20260506092016 | 18 | 113 | 1.6 | 9.7 | 0.00 | 0.00 | 0.00 | 78 | 1012.4 |
| 20260506091035 | 18 | 68 | 3.2 | 11.3 | 0.00 | 0.00 | 0.00 | 78 | 1012.4 |